Theta_e
342 347 349 350 347 346 344 344 344 345 344 343 342 344 344 343 342 343 343 343 340 338 339 338 336 336 335 335 334 334 333 332 332 335 337 338 338 338 340 338 339 336 338
344 347 347 349 348 346 344 344 344 344 343 341 341 341 343 342 339 339 341 342 340 339 337 338 337 335 334 334 333 333 332 331 333 334 334 337 336 338 341 340 340 338 339
344 346 349 347 349 348 345 343 343 344 343 342 340 339 340 340 339 337 337 341 340 337 337 338 335 334 334 333 333 332 332 332 333 334 334 332 335 338 338 337 336 336 336
344 346 347 346 348 347 345 342 343 343 344 341 340 339 338 337 337 336 337 340 339 338 336 336 335 336 335 333 333 333 333 332 333 335 333 331 334 338 337 336 335 334 334
344 346 347 345 348 346 344 344 343 343 342 342 340 339 337 337 336 336 337 339 338 337 335 335 335 335 336 334 333 332 332 331 331 334 331 334 334 337 337 335 333 333 333
344 346 344 346 348 346 345 343 341 339 338 344 341 339 338 336 336 337 337 338 338 335 335 334 335 334 334 334 333 333 332 331 332 328 330 332 332 335 337 335 334 332 332
344 346 346 344 346 345 344 342 342 341 338 340 342 340 339 337 335 335 335 336 335 335 334 332 334 334 333 333 333 333 331 329 327 326 329 333 332 333 334 335 334 331 330
343 345 345 338 340 342 343 343 342 341 339 338 336 341 339 337 335 335 335 335 334 334 333 333 334 333 332 331 332 331 329 329 327 326 326 330 333 332 332 334 334 332 331
343 344 345 344 340 335 338 339 339 340 339 339 338 341 339 337 337 336 336 336 334 332 332 333 333 331 331 330 328 327 327 326 329 328 325 327 330 331 331 331 331 332 330
340 342 344 343 343 342 340 333 334 336 336 336 334 335 333 333 333 333 331 334 333 332 333 332 331 330 329 327 325 324 323 325 329 329 328 327 326 329 330 330 329 330 330
336 338 340 343 343 342 341 335 331 331 332 331 331 327 328 334 334 332 328 331 332 332 332 331 331 330 329 326 323 322 320 328 327 327 328 323 325 329 328 329 330 329 330
333 335 337 339 341 341 339 340 339 337 336 334 334 334 333 333 332 331 326 327 330 330 332 332 332 331 327 327 325 320 324 324 325 326 326 321 324 328 330 329 330 330 330
336 334 335 336 337 341 340 340 339 338 337 335 335 335 334 332 331 330 331 329 331 325 331 331 331 330 329 327 325 324 324 325 325 326 325 321 324 328 330 331 331 331 331
336 337 336 336 336 337 340 339 338 337 337 335 334 333 332 331 331 330 329 329 330 330 330 330 329 329 328 327 326 324 323 324 325 326 325 320 322 327 330 331 331 332 332
334 337 338 336 335 335 336 339 338 337 336 336 335 334 332 330 329 329 328 328 328 328 328 328 329 328 328 327 326 325 323 323 324 325 326 319 320 324 328 330 332 332 333
333 335 338 338 336 335 336 337 337 338 337 337 336 334 333 331 330 329 327 327 327 327 327 327 326 326 325 325 323 323 323 323 324 325 325 326 321 323 326 329 331 332 333
332 334 335 337 339 339 339 339 337 336 335 333 335 336 334 332 330 329 328 327 326 327 327 327 327 327 325 323 322 322 323 323 324 324 325 325 325 320 322 326 328 330 332
330 331 333 334 336 338 339 339 338 338 336 334 332 333 335 333 331 330 328 328 328 327 327 326 326 325 325 323 321 321 321 322 323 323 324 324 324 323 322 322 326 328 330
323 325 327 331 333 336 337 338 338 338 337 337 334 331 334 334 332 331 329 329 329 328 327 327 326 325 324 323 323 323 323 323 323 322 322 323 323 323 324 323 321 322 327
318 321 324 328 331 333 335 336 337 337 336 337 335 332 333 334 333 332 331 330 329 327 327 327 326 326 324 324 322 322 323 324 324 323 323 322 323 323 323 323 324 320 318
316 317 320 321 326 330 331 332 330 328 331 334 335 335 334 334 333 332 332 331 330 328 327 327 326 324 324 325 322 322 322 323 322 323 323 322 322 322 322 322 324 324 323
315 316 317 320 323 328 329 331 332 332 332 333 334 334 334 334 333 332 332 331 330 328 328 327 326 324 323 326 320 321 315 318 319 319 320 320 320 321 321 321 321 321 323
314 315 315 318 322 325 328 329 331 331 331 330 332 332 332 333 333 332 332 331 331 329 328 328 327 325 322 325 323 321 315 313 313 318 319 320 320 321 323 323 322 322 323
312 315 315 315 316 320 325 327 327 326 325 328 330 331 331 331 331 331 331 331 330 329 327 328 328 326 324 322 320 321 324 322 315 315 320 319 319 319 321 323 323 323 323
310 315 318 316 316 319 324 327 327 327 328 330 330 329 329 330 330 330 329 329 329 328 328 327 327 325 324 322 322 321 318 320 320 315 311 318 320 320 321 320 322 324 324
311 318 323 322 323 324 326 327 328 327 328 328 328 328 329 329 329 329 328 328 328 327 326 327 325 323 322 321 320 320 318 314 312 313 311 313 316 320 321 322 321 323 325
Wind_Speed
9 11 12 14 14 13 12 11 11 11 11 11 12 12 14 15 13 14 12 13 12 14 16 15 16 16 14 14 14 14 15 15 13 15 14 14 14 13 12 9 7 12 11
12 13 11 13 14 13 12 11 11 10 10 10 10 11 11 12 14 14 11 12 13 14 14 13 14 16 14 13 13 13 12 11 11 12 9 12 12 13 18 17 17 17 18
13 12 13 12 13 12 12 10 9 9 12 12 10 10 10 12 11 12 11 10 13 13 14 12 12 13 13 12 12 12 12 10 10 9 4 9 10 11 17 17 16 17 18
13 12 13 10 11 12 11 10 8 6 10 13 10 10 9 9 10 11 11 10 13 14 13 11 12 11 13 12 11 11 10 8 9 8 7 7 9 11 15 16 16 15 15
12 11 11 10 12 12 11 10 8 7 9 10 13 10 9 9 10 10 9 10 10 12 12 11 12 10 11 10 10 9 8 7 4 3 8 7 7 10 12 13 13 14 13
12 12 12 10 12 11 11 11 8 7 3 9 11 12 10 9 7 8 7 7 9 10 11 11 9 9 8 8 8 8 7 5 4 7 6 7 8 8 11 12 11 11 11
12 11 13 10 10 10 10 10 9 7 5 6 9 11 12 10 9 7 7 8 9 9 9 9 8 7 7 7 7 7 7 3 5 6 6 5 8 8 8 9 10 9 9
10 10 11 8 8 9 8 8 6 6 5 3 7 13 12 10 8 8 8 8 9 9 8 8 7 6 6 6 6 6 5 1 2 5 5 4 10 7 6 6 7 8 7
10 10 10 11 10 7 8 7 7 6 5 2 3 12 9 10 8 6 4 5 8 8 8 8 7 5 5 5 5 4 3 1 2 3 3 2 8 4 4 4 4 5 5
9 10 10 10 10 9 9 8 8 7 6 5 2 6 8 7 8 6 3 1 4 5 6 5 4 3 2 2 3 3 2 3 2 1 0 3 4 5 1 1 1 2 3
8 10 10 10 10 9 8 8 7 6 7 7 5 6 8 6 8 9 5 4 3 3 5 5 4 3 2 1 0 1 4 2 3 2 2 4 4 6 4 2 2 2 3
11 11 9 11 11 10 7 8 9 8 8 9 8 9 7 7 6 6 4 6 4 6 5 6 5 3 5 5 4 5 5 4 4 3 3 1 6 7 8 6 5 5 5
11 9 10 10 10 11 9 7 6 5 6 6 10 9 8 6 6 6 5 5 6 7 6 7 7 6 6 5 5 5 5 5 4 4 4 4 7 9 10 10 9 8 8
12 13 12 11 9 10 8 8 8 7 7 7 9 11 8 6 7 7 6 6 6 5 6 6 5 6 7 7 7 7 7 6 5 4 5 7 9 11 12 12 12 11 10
11 12 13 12 12 9 11 9 9 9 8 9 8 10 9 8 8 7 7 6 6 6 7 6 6 6 7 7 8 8 8 9 9 6 5 7 10 12 13 14 14 14 14
12 13 13 14 14 12 12 13 9 9 9 9 9 10 12 9 8 8 7 7 7 7 7 6 7 7 7 7 8 9 10 9 10 10 8 8 11 13 15 15 16 16 16
11 12 13 14 15 16 15 13 10 9 10 9 9 12 12 12 11 10 8 8 8 7 8 7 7 7 7 7 10 10 10 11 11 12 10 9 8 13 15 17 18 18 18
11 11 12 12 15 16 15 12 11 11 10 10 9 9 14 14 13 11 9 8 8 7 7 8 8 7 7 8 8 8 9 10 12 12 11 10 9 8 10 17 18 19 19
11 12 12 13 15 16 15 12 12 12 11 10 10 9 13 14 14 12 10 9 10 8 8 8 8 8 8 8 8 9 9 10 12 11 13 14 14 11 8 11 16 18 19
13 13 12 10 13 14 10 10 10 10 11 10 10 10 13 11 14 13 11 11 10 9 9 9 10 9 9 9 8 9 10 11 11 12 14 13 14 14 13 13 10 11 19
13 13 14 14 13 10 9 9 9 11 10 10 11 14 15 13 13 12 10 11 11 11 11 11 10 11 10 8 8 8 10 12 13 13 12 12 13 13 13 12 9 8 9
13 12 12 13 12 11 10 9 9 8 10 10 11 12 14 14 14 13 13 11 12 10 12 12 11 10 9 8 7 5 6 4 7 9 9 9 12 9 11 13 13 13 11
10 10 10 12 13 13 14 9 8 7 7 8 9 10 11 13 13 14 14 12 12 11 10 12 11 14 10 8 12 8 5 6 3 6 8 7 8 7 7 9 11 13 12
8 8 10 12 12 12 13 12 15 10 11 8 8 8 8 11 13 14 14 13 13 10 12 11 10 12 9 11 3 10 14 12 6 8 5 7 7 9 10 8 9 11 12
5 6 7 7 8 10 11 13 10 12 8 6 5 7 9 9 12 12 12 12 13 10 12 13 12 10 9 9 9 7 8 10 11 8 10 10 7 8 10 11 10 10 11
6 6 4 2 2 4 7 10 11 10 9 6 7 6 6 6 6 9 10 10 11 10 11 10 10 10 9 9 8 8 7 4 5 7 9 11 14 11 11 10 11 10 9
Wind_Direction
161 145 154 143 140 137 133 133 134 129 126 116 111 112 112 110 114 102 92 97 89 101 96 97 94 90 87 85 81 76 70 67 56 58 65 57 54 48 44 52 16 58 48
149 153 153 150 146 142 138 137 140 139 131 121 119 118 122 117 113 109 110 106 109 108 100 96 99 99 91 91 95 95 84 80 48 43 10 99 59 57 60 61 59 59 58
151 153 161 153 145 139 136 142 140 145 139 124 121 122 135 127 124 121 126 125 119 117 108 102 111 109 102 97 98 94 86 53 32 32 317 68 70 64 64 60 58 59 58
153 158 157 151 147 144 139 140 144 130 134 123 128 126 124 136 129 133 140 127 127 122 117 110 107 110 110 104 99 96 85 65 31 333 61 55 76 68 65 66 61 58 64
155 160 146 155 148 150 145 141 146 146 136 150 137 135 139 133 140 142 140 129 136 131 127 117 113 103 97 112 106 98 88 70 33 54 61 40 68 65 75 67 71 64 54
158 164 139 156 148 155 148 150 154 162 154 159 140 138 137 146 147 146 156 135 140 141 141 135 118 105 99 109 124 107 94 74 279 67 65 59 60 60 71 80 74 66 56
165 167 163 152 148 152 152 156 158 161 158 156 153 152 146 151 157 170 163 151 150 150 147 148 128 114 101 98 134 121 99 62 55 69 72 54 65 56 59 82 80 70 63
169 170 167 155 150 154 156 161 169 169 157 161 176 157 151 154 164 176 175 162 167 164 160 158 147 134 117 101 112 122 113 301 134 73 64 52 8 62 64 61 86 83 74
168 179 180 177 171 160 163 166 177 181 174 169 127 154 168 153 166 184 205 191 171 178 174 163 165 162 151 129 109 103 125 320 333 65 50 51 15 39 63 61 68 99 86
176 186 187 190 187 184 180 175 179 181 197 168 203 161 158 157 159 166 169 254 203 194 180 177 182 182 169 121 99 83 88 214 270 181 207 59 336 331 37 53 41 112 124
189 194 195 194 197 198 197 180 186 192 187 171 159 137 161 199 184 171 183 158 219 174 193 194 204 206 178 175 241 313 259 250 252 248 251 97 294 292 289 267 234 219 190
204 203 203 202 204 201 200 197 204 195 204 201 194 184 205 200 201 210 193 204 224 209 195 200 219 215 233 245 210 213 246 264 260 267 263 212 274 275 269 258 246 235 227
205 209 212 210 210 210 207 203 203 205 205 208 208 201 205 206 196 209 213 206 218 203 221 206 202 225 237 256 254 257 265 262 265 263 250 228 259 269 269 260 255 250 242
206 206 211 213 213 218 218 212 213 211 208 209 209 207 206 208 213 219 221 220 220 220 229 227 230 238 243 246 257 267 264 267 269 277 265 210 251 264 267 263 257 254 247
220 218 206 209 210 207 220 222 221 218 213 221 215 212 211 214 216 218 222 223 225 220 225 227 232 236 240 247 251 252 256 255 258 258 264 213 239 253 259 259 258 255 254
228 228 219 210 212 205 212 217 218 224 227 224 219 217 213 219 219 218 223 227 230 227 227 233 236 238 243 244 248 248 253 254 253 256 254 254 214 238 246 251 253 252 251
230 233 227 223 217 217 216 214 216 218 222 221 226 222 219 217 221 221 223 224 227 225 235 239 243 245 250 247 253 251 249 250 255 256 257 256 251 218 232 241 245 248 247
246 235 233 221 221 222 223 219 218 217 215 220 222 225 223 222 221 221 225 227 224 221 223 229 236 243 252 260 263 261 256 257 255 256 255 253 246 245 219 229 238 241 242
259 251 238 229 227 227 227 225 226 226 223 221 218 217 226 224 223 225 227 229 223 224 226 236 242 243 255 257 262 270 271 268 266 262 259 254 250 242 237 228 220 231 236
261 256 243 229 229 231 230 227 229 228 229 228 218 221 219 223 221 224 232 232 229 232 234 232 237 238 242 257 264 264 265 267 264 260 258 252 249 243 238 237 232 229 227
261 251 248 245 230 221 216 217 227 224 226 228 227 219 223 225 223 226 234 235 231 237 237 235 235 239 245 239 266 264 261 252 257 255 257 259 259 253 246 241 235 236 225
265 257 248 243 235 218 220 216 221 211 223 226 231 229 226 223 221 222 227 233 230 237 240 238 235 241 247 233 242 277 284 274 234 244 246 249 255 255 248 244 239 237 234
263 263 253 244 236 228 224 220 217 227 233 224 225 229 227 228 227 227 230 233 233 232 244 240 233 234 247 233 233 245 268 250 313 230 230 230 233 236 242 243 241 239 232
275 276 262 258 252 245 231 220 216 215 224 222 225 221 219 217 226 228 233 238 241 239 239 247 243 240 239 254 179 244 257 281 282 291 233 258 258 266 254 245 245 242 237
321 299 273 258 251 238 226 221 218 229 242 242 222 218 213 212 222 225 225 229 235 237 242 246 246 232 235 243 248 233 233 251 258 262 282 280 263 264 265 264 260 247 235
22 23 24 60 14 234 218 217 223 231 236 232 230 226 222 221 226 232 232 233 237 234 232 236 241 242 233 234 240 249 235 214 212 232 249 267 279 276 268 263 261 261 250